Location: Gleizolles
(44.4833°N, 6.7667°E)
Time: 02:07:55
(UTC+00:00)

Vanguard 1 Rocket - Pass Details

Date: 25 June 2024
Orbit: 650 x 4219 km, 34.3° (Epoch: 15 July)

Event Time Altitude Azimuth Distance (km) Brightness Sun altitude
Rises 02:04:18 0° 251° (WSW) 5,557 - -14.1°
Exits shadow 02:06:18 - 249° (WSW) 5,124 10.7 -13.9°
Reaches altitude 10° 02:07:18 10° 248° (WSW) 4,922 10.6 -13.8°
Maximum altitude 02:22:47 62° 172° (S) 3,745 10.3 -12.1°
Drops below altitude 10° 02:47:41 10° 100° (E) 7,425 12.5 -9.2°
Sets 02:53:35 0° 98° (E) 8,401 12.9 -8.5°
